Regional Weather Roundup
Issued by NWS

Home | Current Version | Previous Version | Text Only | Print | Product List | Glossary Off
Versions: 1 2 3 4 5 6 7 8 9 10 11 12 13 14 15 16 17 18 19 20 21 22 23 24 25 26 27 28 29 30 31 32 33 34 35 36 37 38 39 40 41 42 43 44 45 46 47 48 49 50

000
ASUS43 KMPX 242101
RWRMN
WEATHER ROUNDUP FOR MINNESOTA
NATIONAL WEATHER SERVICE TWIN CITIES/CHANHASSEN MN
400 PM CDT SUN JUL 24 2016


NOTE: "FAIR" INDICATES FEW OR NO CLOUDS BELOW 12,000 FEET WITH NO
SIGNIFICANT WEATHER AND/OR OBSTRUCTIONS TO VISIBILITY. N/A MEANS
CURRENT SKY AND/OR WEATHER CONDITIONS ARE NOT AVAILABLE.

MNZ060>063-068>070-242200-
   Twin Cities Metro

CITY           SKY/WX    TMP DP  RH WIND       PRES   REMARKS
TWIN CITIES    MOSUNNY   84  62  47 W13       29.93R
ST PAUL        MOSUNNY   83  62  49 W15       29.92R
CRYSTAL        SUNNY     83  60  45 NW17G24   29.92R
BLAINE         MOSUNNY   84  61  45 W15G22    29.92R
LAKEVILLE      PTSUNNY   79  64  61 W14G20    29.95R
EDEN PRAIRIE   MOSUNNY   84  62  47 W13G21    29.94R
LAKEVILLE      PTSUNNY   79  64  61 W14G20    29.95R
SOUTH ST PAUL  PTSUNNY   84  61  45 W12       29.92R
LAKE ELMO      FAIR      82  64  54 W12       29.92R
$$
MNZ001>005-007-008-013>017-022>024-027-028-242200-
   Northwest Minnesota

CITY           SKY/WX    TMP DP  RH WIND       PRES   REMARKS
BEMIDJI        MOSUNNY   79  61  53 W18G26    29.88R
HALLOCK        MOSUNNY   75  64  69 NW13      29.86R
ROSEAU         SUNNY     79  64  61 W15G22    29.84R
WARROAD        SUNNY     77  64  65 W16G22    29.83S
THIEF RVR FALL MOSUNNY   77  61  57 W17G23    29.89R
CROOKSTON      MOSUNNY   79  63  57 NW16      29.90R
FOSSTON        MOSUNNY   75  59  57 W15G21    29.91R
DETROIT LAKES  MOSUNNY   77  59  53 W13G23    29.95R
MOORHEAD       MOSUNNY   81  57  44 W22G28    29.94R
PARK RAPIDS    MOSUNNY   79  58  48 W18G26    29.91R
MAHNOMEN       MOCLDY    77  61  57 W17       29.91R
$$
MNZ006-009>011-018-025>026-242200-
   North Central Minnesota

CITY           SKY/WX    TMP DP  RH WIND       PRES   REMARKS
BAUDETTE       MOSUNNY   78  60  53 W18G30    29.81S
FLAG ISLAND    MOSUNNY   75  59  57 W18       29.79S
INTL FALLS     PTSUNNY   74  58  57 W15G21    29.80S
WASKISH        MOSUNNY   79  63  57 W13G22    29.84S
BIG FORK       MOSUNNY   79  61  53 W7G17     29.85S
LONGVILLE      PTSUNNY   79  59  50 W8G17     29.89R
GRAND RAPIDS   MOSUNNY   78  60  53 W14G20    29.89R
CRANE LAKE     PTSUNNY   75  61  60 W6        29.81S
ORR            PTSUNNY   77  57  50 NW13G20   29.79S
COOK           MOSUNNY   77  61  57 W10       29.83R
WALKER         CLOUDY    76  60  57 W12G20    29.89R
$$
MNZ012-019>021-037-242200-
   Northeast Minnesota

CITY           SKY/WX    TMP DP  RH WIND       PRES   REMARKS
DULUTH         MOSUNNY   80  59  48 W17G23    29.84R
ELY            MOSUNNY   75  57  53 W12G18    29.81R
HIBBING        MOSUNNY   76  59  55 W7        29.84R
EVELETH        MOSUNNY   79  57  47 W10G23    29.85R
DULUTH HARBOR  MOSUNNY   82  63  51 W12       29.81S
TWO HARBORS    MOSUNNY   82  64  54 W9G20     29.80R
SILVER BAY     MOSUNNY   82  61  47 W6        29.78R
GRAND MARAIS     N/A     83  59  44 VRB6G17   29.72S
G MARAIS ARPRT MOSUNNY   75  57  53 W9G21     29.80R
$$
MNZ029>031-032-039>041-046>048-054>057-064-242200-
   West Central Minnesota

CITY           SKY/WX    TMP DP  RH WIND       PRES   REMARKS
FERGUS FALLS   MOSUNNY   79  61  53 NW12G22   29.96R
WHEATON        SUNNY     82  63  51 W13G20    29.99R
MORRIS         MOSUNNY   82  61  47 W13G18    29.97S
ALEXANDRIA     CLOUDY    80  61  52 W15       29.98R
ELBOW LAKE     FAIR      79  62  55 NW13G21   29.97S
WADENA         MOSUNNY   75  61  60 W12G18    29.93R
GLENWOOD       PTSUNNY   79  63  57 W14       29.99R
APPLETON       MOSUNNY   81  61  50 W9        29.99S
BENSON         CLOUDY    82  61  47 NW16      29.98S
ORTONVILLE     CLOUDY    82  59  44 W10       29.99S
MADISON        MOSUNNY   81  59  47 W8        30.00F
WILLMAR        FAIR      81  64  57 W14       30.00F
$$
MNZ033>034-036-042>043-049>051-058-059-242200-
   Central Minnesota

CITY           SKY/WX    TMP DP  RH WIND       PRES   REMARKS
ST CLOUD       MOSUNNY   81  63  54 W13       29.93R
SAUK CENTRE    FAIR      78  62  59 W16G22    29.97R
PAYNESVILLE    MOSUNNY   78  62  58 W16       29.98R
AITKIN         MOSUNNY   81  57  44 W8        29.89R
PINE RIVER     MOSUNNY   77  61  57 NW5       29.93R
BRAINERD       MOSUNNY   80  59  48 NW13      29.91R
STAPLES        MOSUNNY   81  59  47 W14G20    29.93R
LONG PRAIRIE   FAIR      77  61  57 SW13      29.96R
LITTLE FALLS   MOSUNNY   79  55  44 W15G22    29.94R
LITCHFIELD     SUNNY     81  64  57 W12G20    29.98R
BUFFALO        SUNNY     80  61  52 W13G22    29.96R
MAPLE LAKE     SUNNY     81  64  55 W10G20    29.96R
HUTCHINSON     SUNNY     79  66  65 W17       29.99R
$$
MNZ037-044-045-052-053-242200-
   East Central Minnesota

CITY           SKY/WX    TMP DP  RH WIND       PRES   REMARKS
PRINCETON      SUNNY     82  64  54 W13G18    29.93R
MORA           SUNNY     79  59  50 NW9       29.91R
CAMBRIDGE      SUNNY     82  64  54 W9G18     29.90R
RUSH CITY      SUNNY     81  63  54 W6        29.89R
MOOSE LAKE     MOSUNNY   79  61  53 W10G17    29.86R
HINCKLEY       FAIR      81  63  54 W12G17    29.89R
CLOQUET        MOSUNNY   81  55  41 NW14      29.85S
MCGREGOR       MOSUNNY   79  61  53 W8        29.89R
$$
MNZ071>073-080-081-089-090-097-098-242200-
   Southwest Minnesota

CITY           SKY/WX    TMP DP  RH WIND       PRES   REMARKS
MONTEVIDEO     PTSUNNY   82  64  54 NW7       30.01F
GRANITE FALLS  CLOUDY    80  65  59 W13G20    30.02S
CANBY          MOSUNNY   83  59  44 NW10G18   30.01F
MARSHALL       CLOUDY    78  66  66 W10       30.00F
REDWOOD FALLS  CLOUDY    78  62  57 NW12      30.00F
OLIVIA         CLOUDY    77  63  61 W10       30.00S
PIPESTONE      CLOUDY    75  59  57 NW8       30.04F
WINDOM         PTSUNNY   75  64  69 NW7       30.03S
WORTHINGTON    LGT RAIN  74  66  76 NW12      30.05S
JACKSON        CLOUDY    77  63  61 W7        30.04F
TRACY          PTSUNNY   78  66  66 W5        30.02F
SLAYTON        HVY RAIN  75  63  66 W9        30.04F
$$
MNZ065>067-074>077-082>085-091>093-242200-
   South Central Minnesota

CITY           SKY/WX    TMP DP  RH WIND       PRES   REMARKS
MANKATO        CLOUDY    79  63  57 W14       29.99R
NEW ULM        CLOUDY    77  63  61 W15       30.00S
ST JAMES       CLOUDY    72  59  64 W7G16     30.00F
FAIRMONT       CLOUDY    75  46  35 NW9       29.99F
GLENCOE        SUNNY     81  66  60 W16G24    29.97R
FARIBAULT      PTSUNNY   79  66  65 W13       29.98R
OWATONNA       MOSUNNY   81  63  54 W16G25    29.99R
WASECA         CLOUDY    77  64  65 W17       30.02R
ALBERT LEA     PTSUNNY   79  63  57 W13G21    30.01R
$$
MNZ078>079-086>088-094>096-242200-
   Southeast Minnesota

CITY           SKY/WX    TMP DP  RH WIND       PRES   REMARKS
ROCHESTER      SUNNY     82  66  58 W13G20    29.95R
RED WING       MOSUNNY   84  61  45 NW9       29.89R
STANTON        PTSUNNY   81  64  57 W12       29.93R
DODGE CENTER   SUNNY     82  61  47 NW14G22   29.96R
WINONA         MOSUNNY   84  61  45 W9        29.88R
AUSTIN         SUNNY     81  61  50 NW14      29.96R
PRESTON        MOSUNNY   82  63  53 NW13      29.94R
$$
ABBREVIATIONS USED IN REMARKS
   TC - TEMPERATURES IN CELSIUS
  WCI - WIND CHILL INDEX
   HX - HEAT INDEX
  VSB - VISIBILITY
$$



USA.gov is the U.S. government's official web portal to all federal, state and local government web resources and services.